Time,TemperatureF,DewpointF,PressureIn,WindDirection,WindDirectionDegrees,WindSpeedMPH,WindSpeedGustMPH,Humidity,HourlyPrecipIn,Conditions,Clouds,dailyrainin,SolarRadiationWatts/m^2,SoftwareType,DateUTC
2013-03-30 00:02:00,50.0,33.0,-100.00,NNW,328,10.0,16.0,51,0.00,,,0.00,0.000000,,2013-03-30 07:02:00,
2013-03-30 00:12:00,50.0,33.0,-100.00,NNW,328,10.0,16.0,51,0.00,,,0.00,0.000000,,2013-03-30 07:12:00,
2013-03-30 00:22:00,50.0,33.0,-100.00,NNW,328,10.0,16.0,51,0.00,,,0.00,0.000000,,2013-03-30 07:22:00,
2013-03-30 00:52:00,51.0,31.0,-100.00,NNW,327,10.0,15.0,46,0.00,,,0.00,0.000000,,2013-03-30 07:52:00,
2013-03-30 01:01:00,51.0,31.0,-100.00,NNW,327,10.0,15.0,46,0.00,,,0.00,0.000000,,2013-03-30 08:01:00,
2013-03-30 01:12:00,51.0,31.0,-100.00,NNW,327,10.0,15.0,46,0.00,,,0.00,0.000000,,2013-03-30 08:12:00,
2013-03-30 01:21:00,51.0,31.0,-100.00,NNW,327,10.0,15.0,46,0.00,,,0.00,0.000000,,2013-03-30 08:21:00,
2013-03-30 01:53:00,51.0,29.0,-100.00,NW,320,8.0,12.0,43,0.00,,,0.00,0.000000,,2013-03-30 08:53:00,
2013-03-30 02:02:00,51.0,29.0,-100.00,NW,320,8.0,12.0,43,0.00,,,0.00,0.000000,,2013-03-30 09:02:00,
2013-03-30 02:12:00,51.0,29.0,-100.00,NW,320,8.0,12.0,43,0.00,,,0.00,0.000000,,2013-03-30 09:12:00,
2013-03-30 02:22:00,51.0,29.0,-100.00,NW,320,8.0,12.0,43,0.00,,,0.00,0.000000,,2013-03-30 09:22:00,
2013-03-30 02:53:00,51.0,30.0,-100.00,NW,313,7.0,12.0,45,0.00,,,0.00,0.000000,,2013-03-30 09:53:00,
2013-03-30 03:02:00,51.0,30.0,-100.00,NW,313,7.0,12.0,45,0.00,,,0.00,0.000000,,2013-03-30 10:02:00,
2013-03-30 03:12:00,51.0,30.0,-100.00,NW,313,7.0,12.0,45,0.00,,,0.00,0.000000,,2013-03-30 10:12:00,
2013-03-30 03:22:00,51.0,30.0,-100.00,NW,313,7.0,12.0,45,0.00,,,0.00,0.000000,,2013-03-30 10:22:00,
2013-03-30 03:52:00,51.0,29.0,-100.00,WNW,291,5.0,8.0,42,0.00,,,0.00,0.000000,,2013-03-30 10:52:00,
2013-03-30 04:03:00,51.0,29.0,-100.00,WNW,291,5.0,8.0,42,0.00,,,0.00,0.000000,,2013-03-30 11:03:00,
2013-03-30 04:12:00,51.0,29.0,-100.00,WNW,291,5.0,8.0,42,0.00,,,0.00,0.000000,,2013-03-30 11:12:00,
2013-03-30 04:22:00,51.0,29.0,-100.00,WNW,291,5.0,8.0,42,0.00,,,0.00,0.000000,,2013-03-30 11:22:00,
2013-03-30 04:53:00,51.0,20.0,-100.00,SSE,149,6.0,9.0,29,0.00,,,-99.99,0.000000,,2013-03-30 11:53:00,
2013-03-30 05:02:00,51.0,20.0,-100.00,SSE,149,6.0,9.0,29,0.00,,,-99.99,0.000000,,2013-03-30 12:02:00,
2013-03-30 05:12:00,51.0,20.0,-100.00,SSE,149,6.0,9.0,29,0.00,,,-99.99,0.000000,,2013-03-30 12:12:00,
2013-03-30 05:53:00,53.0,16.0,-100.00,SE,124,5.0,8.0,23,0.00,,,0.00,0.000000,,2013-03-30 12:53:00,
2013-03-30 06:02:00,53.0,16.0,-100.00,SE,124,5.0,8.0,23,0.00,,,0.00,0.000000,,2013-03-30 13:02:00,
2013-03-30 06:52:00,51.0,22.0,-100.00,ESE,118,4.0,6.0,32,-99.99,,,0.00,0.000000,,2013-03-30 13:52:00,
2013-03-30 07:02:00,51.0,22.0,-100.00,ESE,118,4.0,6.0,32,-99.99,,,0.00,0.000000,,2013-03-30 14:02:00,
2013-03-30 07:11:00,51.0,22.0,-100.00,ESE,118,4.0,6.0,32,-99.99,,,0.00,0.000000,,2013-03-30 14:11:00,
2013-03-30 07:22:00,51.0,22.0,-100.00,ESE,118,4.0,6.0,32,-99.99,,,0.00,0.000000,,2013-03-30 14:22:00,
2013-03-30 07:52:00,52.0,11.0,-100.00,SSE,155,1.0,7.0,19,0.00,,,0.00,17.000000,,2013-03-30 14:52:00,
2013-03-30 08:02:00,52.0,11.0,-100.00,SSE,155,1.0,7.0,19,0.00,,,0.00,17.000000,,2013-03-30 15:02:00,
2013-03-30 08:53:00,53.0,16.0,-100.00,ESE,122,2.0,7.0,23,-99.99,,,0.00,130.000000,,2013-03-30 15:53:00,
2013-03-30 09:03:00,53.0,16.0,-100.00,ESE,122,2.0,7.0,23,-99.99,,,0.00,130.000000,,2013-03-30 16:03:00,
2013-03-30 09:12:00,53.0,16.0,-100.00,ESE,122,2.0,7.0,23,-99.99,,,0.00,130.000000,,2013-03-30 16:12:00,
2013-03-30 09:22:00,53.0,16.0,-100.00,ESE,122,2.0,7.0,23,-99.99,,,0.00,130.000000,,2013-03-30 16:22:00,
2013-03-30 09:52:00,60.0,29.0,-100.00,SSE,159,3.0,7.0,31,0.00,,,0.00,464.000000,,2013-03-30 16:52:00,
2013-03-30 10:52:00,61.0,22.0,-100.00,SE,127,7.0,12.0,22,-99.99,,,0.00,796.000000,,2013-03-30 17:52:00,
2013-03-30 11:02:00,61.0,22.0,-100.00,SE,127,7.0,12.0,22,-99.99,,,0.00,796.000000,,2013-03-30 18:02:00,
2013-03-30 11:53:00,59.0,20.0,-100.00,ESE,113,9.0,16.0,22,0.00,,,0.00,956.000000,,2013-03-30 18:53:00,
2013-03-30 12:02:00,59.0,20.0,-100.00,ESE,113,9.0,16.0,22,0.00,,,0.00,956.000000,,2013-03-30 19:02:00,
2013-03-30 12:12:00,59.0,20.0,-100.00,ESE,113,9.0,16.0,22,0.00,,,0.00,956.000000,,2013-03-30 19:12:00,
2013-03-30 12:22:00,59.0,20.0,-100.00,ESE,113,9.0,16.0,22,0.00,,,0.00,956.000000,,2013-03-30 19:22:00,
2013-03-30 12:53:00,63.0,18.0,-100.00,ESE,109,8.0,16.0,17,0.00,,,0.00,1133.000000,,2013-03-30 19:53:00,
2013-03-30 13:02:00,63.0,18.0,-100.00,ESE,109,8.0,16.0,17,0.00,,,0.00,1133.000000,,2013-03-30 20:02:00,
2013-03-30 13:53:00,63.0,18.0,-100.00,ESE,108,8.0,17.0,17,0.00,,,0.00,1182.000000,,2013-03-30 20:53:00,
2013-03-30 14:02:00,63.0,18.0,-100.00,ESE,108,8.0,17.0,17,0.00,,,0.00,1182.000000,,2013-03-30 21:02:00,
2013-03-30 14:53:00,66.0,23.0,-100.00,ENE,75,6.0,17.0,19,0.00,,,0.00,1007.000000,,2013-03-30 21:53:00,
2013-03-30 15:02:00,66.0,23.0,-100.00,ENE,75,6.0,17.0,19,0.00,,,0.00,1007.000000,,2013-03-30 22:02:00,
2013-03-30 15:53:00,61.0,22.0,-100.00,SSE,150,11.0,22.0,22,0.00,,,0.00,714.000000,,2013-03-30 22:53:00,
2013-03-30 16:02:00,61.0,22.0,-100.00,SSE,150,11.0,22.0,22,0.00,,,0.00,714.000000,,2013-03-30 23:02:00,
2013-03-30 16:12:00,61.0,22.0,-100.00,SSE,150,11.0,22.0,22,0.00,,,0.00,714.000000,,2013-03-30 23:12:00,
2013-03-30 16:22:00,61.0,22.0,-100.00,SSE,150,11.0,22.0,22,0.00,,,0.00,714.000000,,2013-03-30 23:22:00,
2013-03-30 16:53:00,63.0,26.0,-100.00,South,174,18.0,27.0,24,0.00,,,0.00,721.000000,,2013-03-30 23:53:00,
2013-03-30 17:02:00,63.0,26.0,-100.00,South,174,18.0,27.0,24,0.00,,,0.00,721.000000,,2013-03-31 00:02:00,
2013-03-30 17:52:00,63.0,27.0,-100.00,South,179,16.0,25.0,25,-99.99,,,0.00,528.000000,,2013-03-31 00:52:00,
2013-03-30 18:02:00,63.0,27.0,-100.00,South,179,16.0,25.0,25,-99.99,,,0.00,528.000000,,2013-03-31 01:02:00,
2013-03-30 18:12:00,63.0,27.0,-100.00,South,179,16.0,25.0,25,-99.99,,,0.00,528.000000,,2013-03-31 01:12:00,
2013-03-30 18:22:00,63.0,27.0,-100.00,South,179,16.0,25.0,25,-99.99,,,0.00,528.000000,,2013-03-31 01:22:00,
2013-03-30 18:53:00,60.0,28.0,-100.00,WSW,246,9.0,21.0,30,0.00,,,0.00,290.000000,,2013-03-31 01:53:00,
2013-03-30 19:02:00,60.0,28.0,-100.00,WSW,246,9.0,21.0,30,0.00,,,0.00,290.000000,,2013-03-31 02:02:00,
2013-03-30 19:12:00,60.0,28.0,-100.00,WSW,246,9.0,21.0,30,0.00,,,0.00,290.000000,,2013-03-31 02:12:00,
2013-03-30 19:22:00,60.0,28.0,-100.00,WSW,246,9.0,21.0,30,0.00,,,0.00,290.000000,,2013-03-31 02:22:00,
2013-03-30 19:52:00,55.0,31.0,-100.00,SW,226,7.0,18.0,40,0.00,,,0.00,39.000000,,2013-03-31 02:52:00,
2013-03-30 20:02:00,55.0,31.0,-100.00,SW,226,7.0,18.0,40,0.00,,,0.00,39.000000,,2013-03-31 03:02:00,
2013-03-30 20:12:00,55.0,31.0,-100.00,SW,226,7.0,18.0,40,0.00,,,0.00,39.000000,,2013-03-31 03:12:00,
2013-03-30 20:22:00,55.0,31.0,-100.00,SW,226,7.0,18.0,40,0.00,,,0.00,39.000000,,2013-03-31 03:22:00,
2013-03-30 20:54:00,53.0,32.0,-100.00,WNW,296,6.0,10.0,45,0.00,,,0.00,0.000000,,2013-03-31 03:54:00,
2013-03-30 21:02:00,53.0,-99.9,-100.00,WNW,296,6.0,10.0,45,0.00,,,0.00,0.000000,,2013-03-31 04:02:00,
2013-03-30 21:12:00,53.0,32.0,-100.00,WNW,296,6.0,10.0,45,0.00,,,0.00,0.000000,,2013-03-31 04:12:00,
2013-03-30 21:22:00,53.0,32.0,-100.00,WNW,296,6.0,10.0,45,0.00,,,0.00,0.000000,,2013-03-31 04:22:00,
2013-03-30 21:52:00,52.0,32.0,-100.00,NW,320,5.0,12.0,46,0.00,,,0.00,0.000000,,2013-03-31 04:52:00,
2013-03-30 22:02:00,52.0,32.0,-100.00,NW,320,5.0,12.0,46,0.00,,,0.00,0.000000,,2013-03-31 05:02:00,
2013-03-30 22:12:00,52.0,32.0,-100.00,NW,320,5.0,12.0,46,0.00,,,0.00,0.000000,,2013-03-31 05:12:00,
2013-03-30 22:22:00,52.0,32.0,-100.00,NW,320,5.0,12.0,46,0.00,,,0.00,0.000000,,2013-03-31 05:22:00,
2013-03-30 22:53:00,51.0,34.0,-100.00,NW,323,9.0,16.0,53,0.00,,,0.00,0.000000,,2013-03-31 05:53:00,
2013-03-30 23:11:00,51.0,34.0,-100.00,NW,323,9.0,16.0,53,0.00,,,0.00,0.000000,,2013-03-31 06:11:00,
2013-03-30 23:21:00,51.0,34.0,-100.00,NW,323,9.0,16.0,53,0.00,,,0.00,0.000000,,2013-03-31 06:21:00,
2013-03-30 23:52:00,47.0,35.0,-100.00,NW,309,12.0,20.0,62,0.00,,,0.00,0.000000,,2013-03-31 06:52:00,